Location: Bílinka
(49.3579°N, 14.3767°E)
Time: 20:50:34
(UTC+00:00)

CZ-4 DEB - Visible Passes

Search period start: 02 March 2024 00:00
Search period end: 12 March 2024 00:00
Orbit: 714 x 891 km, 98.2° (Epoch: 02 March)

Date Brightness Start Highest point End Pass type
(mag) Time Alt. Az. Time Alt. Az. Time Alt. Az.
02 Mar ? 04:14:54 10° ESE 04:19:23 30° ENE 04:23:43 10° N visible
02 Mar ? 18:03:56 10° NNE 18:08:37 50° E 18:13:18 10° S visible
02 Mar ? 19:44:18 10° N 19:48:09 24° WNW 19:52:00 10° WSW visible
03 Mar ? 03:50:07 10° ESE 03:53:44 20° ENE 03:57:17 10° NNE visible
03 Mar ? 17:38:20 10° NNE 17:42:34 30° E 17:46:48 10° SSE visible
03 Mar ? 19:18:01 10° N 19:22:28 38° WNW 19:26:54 10° SW visible
04 Mar ? 03:26:00 10° E 03:28:12 13° NE 03:30:22 10° NNE visible
04 Mar ? 05:02:00 10° SSE 05:07:12 71° ENE 05:12:10 10° N visible
04 Mar ? 18:51:55 10° N 18:56:41 63° WNW 19:01:27 10° SSW visible
04 Mar ? 20:34:28 10° NW 20:35:33 11° NW 20:36:37 10° WNW visible
05 Mar ? 04:36:31 10° SE 04:41:23 44° ENE 04:46:05 10° N visible
05 Mar ? 18:25:57 10° NNE 18:30:48 79° ESE 18:35:39 10° S visible
05 Mar ? 20:07:01 10° NNW 20:10:01 17° WNW 20:13:03 10° W visible
06 Mar ? 04:11:22 10° ESE 04:15:40 28° ENE 04:19:51 10° N visible
06 Mar ? 18:00:10 10° NNE 18:04:50 47° E 18:09:31 10° S visible
06 Mar ? 19:40:28 10° N 19:44:25 26° WNW 19:48:22 10° WSW visible
07 Mar ? 03:46:39 10° E 03:50:02 18° ENE 03:53:21 10° NNE visible
07 Mar ? 17:34:36 10° NE 17:38:46 28° E 17:42:59 10° SSE visible
07 Mar ? 19:14:13 10° N 19:18:42 41° WNW 19:23:14 10° SW visible
08 Mar ? 03:22:44 10° ENE 03:24:30 12° NE 03:26:15 10° NNE visible
08 Mar ? 18:48:07 10° N 18:52:54 67° WNW 18:57:45 10° SSW visible
08 Mar ? 20:30:18 10° NW 20:31:50 11° NW 20:33:21 10° WNW visible
09 Mar ? 04:32:55 10° SE 04:37:39 41° ENE 04:42:14 10° N visible
09 Mar ? 18:22:10 10° NNE 18:27:00 75° ESE 18:31:56 10° S visible
09 Mar ? 20:03:07 10° NNW 20:06:18 18° WNW 20:09:30 10° W visible
10 Mar ? 04:07:49 10° ESE 04:11:56 26° ENE 04:15:58 10° N visible
10 Mar ? 17:56:24 10° NNE 18:01:02 44° E 18:05:45 10° S visible
10 Mar ? 19:36:37 10° N 19:40:40 27° WNW 19:44:46 10° WSW visible
11 Mar ? 03:43:10 10° E 03:46:19 17° ENE 03:49:25 10° NNE visible
11 Mar ? 17:30:51 10° NE 17:34:58 27° E 17:39:09 10° SSE visible
11 Mar ? 19:10:22 10° N 19:14:56 43° WNW 19:19:36 10° SW visible
